Weather in Odolena Voda

Czech Republic     50°14′00″N   14°24′39″E
temp.,
°C
wind,
m/s
gust,
m/s
humid.,
%
clouds,
%
prec.,
mm/h
press.,
hPa
HPBL,
m
28 november, sun
sun2801:00+1sse228294 0.0 99726
04:00+1sw1187100 0.0 99725
07:00+1ese1282100 0.0 99867
10:00+2ne1179100 0.0 998181
13:00+2nnw3379100 0.1 996444
16:00+1wnw3597100 0.6 997220
19:00+1wnw2592100 1.1 997236
22:00+1wnw2588100 0.1 998233
29 november, mon
mon2901:000wnw248895 0.1 999124
04:00−1wnw3587100 0.0 999136
07:00−1w358596 0.0 1001106
10:00+1w5873100 0.0 1003535
13:00+3wnw686188 0.0 10031306
16:00+2wnw486796 0.1 1005397
19:000w4981100 0.1 1007283
22:00+1w51079100 0.0 1009545
30 november, tue
tue3001:00+1wnw5981100 0.1 1010788
04:000wnw4108188 0.4 1012316
07:000wsw51080100 0.4 1013308
10:00+2wsw61171100 0.0 1012928
13:00+3wsw91775100 0.2 10081292
16:00+2w111981100 1.6 10051074
19:00+3w101778100 2.3 1005906
22:00+4w111884100 0.2 10051040
1 december, wed
wed101:00+4w91588100 0.3 1007797
04:00+4wsw81583100 0.1 1006674
07:00+5wsw91681100 0.5 1006670
10:00+5wsw81783100 0.0 1005826
13:00+6sw81681100 0.0 10031147
16:00+7wsw81775100 0.0 10011259
19:00+7sw81673100 0.0 9991099
22:00+5wsw71380100 0.0 9991035
2 december, thu
thu201:00+5wsw61178100 0.0 9981072
04:00+4sw61195100 0.1 9981030
07:00+5sw61191100 0.1 997883
10:00+5sw61281100 0.3 9981019
13:00+7wsw61066100 0.3 9971167
16:00+5sw5974100 0.0 998720
19:00+4sw4879100 0.0 998530
22:00+3sw3683100 0.0 998185